Regional Weather Roundup
Issued by NWS

Home | Current Version | Previous Version | Text Only | Print | Product List | Glossary Off
Versions: 1 2 3 4 5 6 7 8 9 10 11 12 13 14 15 16 17 18 19 20 21 22 23 24 25 26 27 28 29 30 31 32 33 34 35 36 37 38 39 40 41 42 43 44 45 46 47 48 49 50

000
ASUS43 KLMK 202302
RWRKY
KENTUCKY REGIONAL WEATHER ROUNDUP
NATIONAL WEATHER SERVICE LOUISVILLE KY
600 PM EST SAT DEC 20 2014

NOTE "FAIR" INDICATES FEW OR NO CLOUDS BELOW 12,000 FEET
WITH NO SIGNIFICANT WEATHER AND/OR OBSTRUCTIONS TO VISIBILITY.

KYZ001>023-026-027-061>063-070>075-210000-
WESTERN AND SOUTH CENTRAL KENTUCKY

CITY           SKY/WX    TMP DP  RH WIND       PRES   REMARKS
PADUCAH        CLEAR     38  29  70 CALM      30.24F
HENDERSON      CLEAR     36  25  64 CALM      30.28S
OWENSBORO      CLEAR     37  27  68 CALM      30.29R
HOPKINSVILLE   CLEAR     37  28  68 N2        30.26R
BOWLING GREEN  CLEAR     39  26  59 CALM      30.26S
GLASGOW        NOT AVBL
$$

KYZ024-025-028>034-038-045-046-053-210000-
NORTH CENTRAL KENTUCKY

CITY           SKY/WX    TMP DP  RH WIND       PRES   REMARKS
LOUISVILLE/SDF CLOUDY    36  26  67 N8        30.28S WCI  30
LOUISVILLE/LOU CLOUDY    35  26  69 N7        30.29R WCI  29
FORT KNOX      CLOUDY    35  27  71 NW3       30.25S
$$

KYZ035>037-039>044-047>052-055>060-089>105-210000-
NORTHEAST KENTUCKY

CITY           SKY/WX    TMP DP  RH WIND       PRES   REMARKS
LEXINGTON      CLOUDY    33  26  75 N5        30.26R WCI  29
COVINGTON      CLOUDY    32  24  72 N3        30.28R
FRANKFORT      CLOUDY    34  25  69 N5        30.26R WCI  30
$$

KYZ054-064>069-076>088-106>120-210000-
SOUTHEAST KENTUCKY

CITY           SKY/WX    TMP DP  RH WIND       PRES   REMARKS
JACKSON        CLOUDY    35  25  66 N3        30.22R
LONDON         CLOUDY    40  26  57 CALM      30.22S
SOMERSET       NOT AVBL
MIDDLESBORO    NOT AVBL
MONTICELLO     CLEAR     31  25  78 CALM      30.26S
$$




USA.gov is the U.S. government's official web portal to all federal, state and local government web resources and services.